Flag for Poland Weather past 2 weeks in Jastrzębie Zdrój, Poland

Now
67 °F

Partly sunny.


Feels Like: 67 °F
Forecast: 54 / 70 °F
Wind: 5 mph from Southwest

Location: Ostrava / Mosnov

Current Time: May 29, 2015 at 6:27:49 PM

Latest Report: May 29, 2015 at 5:00 PM


Visibility: 19 mi

Pressure: 29.90 "Hg

Humidity: 57%

Dew point: 51 °F

Location of Jastrzębie ZdrójLocation

Historic Weather in Jastrzębie Zdrój — Graph

°F

Jastrzębie Zdrój temperature yesterday

Maximum temperature yesterday: 58 °F (at 5:00 PM)
Minimum temperature yesterday: 48 °F (at 4:00 AM)
Average temperature yesterday: 53 °F

Past Weeks' High & Low Weather Summary

 TemperatureHumidityPressure
High75 °F (May 19, 12:00 PM)99% (May 20, 7:00 AM)30.24 "Hg (May 20, 7:00 AM)
Low38 °F (May 15, 6:00 AM)34% (May 16, 4:00 PM)29.74 "Hg (May 19, 6:00 AM)
Average55 °F75%30.01 "Hg
* Reported May 14 5:00 PM — May 29 5:00 PM, Jastrzębie Zdrój, Weather by CustomWeather, © 2015

Note: Actual official high and low records may vary slightly from our data, if they occured in-between our weather recording intervals... More about our weather records

Advertising

Jastrzębie Zdrój weather history for previous 24 hours

 ConditionsComfort  
Time TempWeatherWind HumidityBarometerVisibility
5:00 PM
Fri, May 29
67 °FPartly sunny.5 mph57%29.90 "Hg19 mi
4:00 PM69 °FScattered clouds.9 mph44%29.89 "Hg28 mi
3:00 PM71 °FScattered clouds.8 mph39%29.90 "Hg28 mi
2:00 PM70 °FScattered clouds.8 mph42%29.91 "Hg25 mi
1:00 PM69 °FScattered clouds.8 mph47%29.93 "Hg25 mi
12:00 PM66 °FScattered clouds.7 mph51%29.95 "Hg25 mi
11:00 AM64 °FScattered clouds.7 mph53%29.96 "Hg22 mi
10:00 AM61 °FScattered clouds.7 mph55%29.97 "Hg22 mi
9:00 AM58 °FScattered clouds.7 mph59%29.99 "Hg22 mi
8:00 AM53 °FScattered clouds.5 mph75%29.99 "Hg22 mi
7:00 AM48 °FScattered clouds.2 mph80%30.01 "Hg22 mi
6:00 AM45 °FScattered clouds.2 mph81%30.01 "Hg19 mi
5:00 AM41 °FScattered clouds.3 mph87%30.02 "Hg12 mi
4:00 AM39 °FPassing clouds.3 mph91%30.02 "Hg12 mi
3:00 AM41 °FPassing clouds.3 mph90%30.02 "Hg12 mi
2:00 AM41 °FPassing clouds.3 mph87%30.03 "Hg19 mi
12:00 AM47 °FClear.2 mph81%30.03 "Hg19 mi
10:00 PM
Thu, May 28
51 °FPassing clouds.3 mph67%30.02 "Hg19 mi
9:00 PM53 °FPassing clouds.2 mph60%30.02 "Hg19 mi
8:00 PM55 °FScattered clouds.3 mph56%30.01 "Hg19 mi
7:00 PM56 °FScattered clouds.3 mph49%30.01 "Hg22 mi
6:00 PM57 °FPartly sunny.3 mph45%30.03 "Hg22 mi
Weather by CustomWeather, © 2015

See weather overviewHow to use our weather pages